Other Surface Observations
Issued by NWS

Home | Current Version | Previous Version | Text Only | Print | Product List | Glossary On
Versions: 1 2 3 4 5 6 7 8 9 10 11 12 13 14 15 16 17 18 19 20 21 22 23 24 25 26 27 28 29 30 31 32 33 34 35 36 37 38 39 40 41 42 43 44 45 46 47 48 49 50
000
SXUS52 KTAE 300718
OSOTAE
OSOTAE
North Florida/South Alabama/Southwest Georgia Weather Roundup
National Weather Service Tallahassee Florida
300 AM EDT TUE AUG 30 2016

Note: "fair" indicates few or no clouds below 12,000 feet with no
significant weather and/or obstructions to visibility.

!FLZ017-115-028-034-025-300800
...North Florida...

CITY           SKY/WX    TMP DP  RH WIND       PRES   REMARKS
TALLAHASSEE    CLEAR     80  74  81 E7        29.96F
APALACHICOLA   PTCLDY    83  77  82 E14G21    29.93F HX  92
PERRY          CLEAR     76  73  91 CALM      29.97S
CROSS CITY     CLEAR     75  72  88 CALM      29.95S
JACKSONVILLE   PTCLDY    74  73  97 CALM      29.96F
$$

!FLZ112-006-005-002-011-300800
...Florida Panhandle...

CITY           SKY/WX    TMP DP  RH WIND       PRES   REMARKS
MARIANNA       CLEAR     75  72  90 E5        29.98S
BONIFAY        NOT AVBL
PANAMA CITY NW FAIR      77  71  82 E3        29.95S
TYNDALL AFB    PTCLDY    77  73  86 E6        29.95F
TYND DRONE APT FAIR      77  74  91 E6        29.95S
DE FUNIAK SPR  FAIR      76  71  83 NE6       29.98F
EGLIN AFB      CLEAR     80  71  72 NE6       29.95F
DESTIN         CLEAR     83  74  74 E9        29.95S
HURLBURT       CLEAR     79  71  75 NE7       29.93F HAZE
CRESTVIEW      CLEAR     75  71  87 NE3       29.98S
PENSACOLA      CLEAR     80  72  76 NE6       29.94F
$$

!ALZ063-066-300800
...South Alabama...

CITY           SKY/WX    TMP DP  RH WIND       PRES   REMARKS
DOTHAN         PTCLDY    77  73  87 E10       30.04S
OZARK CAIRNS   CLEAR     74  72  93 NE6       29.99F
FT RUCKER HELI CLEAR     76  70  82 NE3       29.99S
RUCKER HELI 3  NOT AVBL
RUCKER HELI 2  FAIR      77  71  82 E7        30.00S
FLORALA APT    CLEAR     74  70  87 E5        30.00S
ANDALUSIA      CLEAR     79  70  74 E7        29.99S
TROY           CLEAR     73  72  96 E5        30.02S
EUFALA         FAIR      77  71  82 E6        30.01F
MOBILE         CLEAR     77  71  82 NE8       29.96F
$$

!GAZ120>161-300800
...Southwest and South Central Georgia...

CITY           SKY/WX    TMP DP  RH WIND       PRES   REMARKS
THOMASVILLE    FAIR      75  73  94 NE5       30.00F
BAINBRIDGE     CLEAR     77  72  83 CALM      30.00S
MOODY AFB      CLEAR     74  71  91 NE5       29.98F
VALDOSTA       CLEAR     76  75  97 E3        29.98F
MOULTRIE       CLEAR     75  72  88 CALM      30.01F
BLAKELY        CLEAR     77  72  83 CALM      30.02S
ALBANY         CLEAR     76  71  85 E3        30.03F
TIFTON         FAIR      74  74 100 CALM      30.01S
FITZGERALD       N/A     78  78 100 CALM      30.04F
CORDELE        FAIR      76  74  93 CALM      30.04S
AMERICUS       FAIR      73  73 100 CALM      30.05S
HOMERVILLE     FAIR      73  73 100 NE3       30.00F
$$

!GMZ750-755-770-775-300800
...Coastal and Buoy Obs...

STATION/POSITION TIME  TEMP    WIND        PRES    VSBY  WAVE
                       AIR SEA DIR/SP/G                  HT/PER
                 (UTC) (F)     (DEG/KT/KT) (MB)    (MI)  (FT/S)
KEATON BEACH     0700   76      50/  5/  8 1013.8F
CEDAR KEY        0700   78      80/ 12/ 14 1014.0F
C TOWER          0700   83      90/ 23/ 27 1013.7F
APALACHICOLA BUO 0650   83 85  100/ 19/ 23 1011.8F         5/ 6
PANAMA CITY BUOY 0650   84 85   90/ 19/ 23 1011.9F         5/ 7
MOBILE BUOY      0700   85 85   50/ 12/ 14 1012.5F
ORANGE BCH AL BU 0650   85 86   80/ 17/ 19 1012.9F         4/ 7
$$




USA.gov is the U.S. government's official web portal to all federal, state and local government web resources and services.